Beidou DW 12

operational
NORAD ID: 38250 Int'l Des: 2012-018 Owner: CNSA Country: CN Constellation: BeiDou
MEOCIRCULAR

Über Beidou DW 12

Beschreibung wird geladen...

Live-Position

3D-Globus wird geladen...

Nächste Überflüge

Höhenverlauf

Altitude vs Time

uPlot chart will show altitude changes over time

Zweizeiliger Elementsatz

1 38250U 12018A 25301.75972351 -.00000027 00000-0 00000+0 0 9999
2 38250 55.9576 312.6699 0024784 270.1541 89.5941 1.86229867 91632
Epoch: 28. Okt. 2025 • Age: 93 hours

Aktueller Status

Höhe 21605.6 km
Geschwindigkeit 3.77 km/s
Subsatellitenpunkt 55.96°N, 125.19°E
Startdatum 29. Apr. 2012
Alter 13.5 years
Typ navigation

Startgruppe

Unknown Vehicle • BeiDou Launch 16 • 2 satellites

Technische Details

Klassifizierung Payload
Masse 2300.00 kg
Trockenmasse 1300.00 kg
Gesamtmasse 2300.00 kg
Länge 3.00 m
Durchmesser 1.70 m
Spannweite 18.00 m
Form Box + 2 Pan
Hersteller CAST
Bus-Typ DFH-3
Phasenstatus In Orbit
Besitzer/Staat CNSA/CN

Große Konstellationen

Loading constellations...